Location: ???????
(54.6339°N, 39.4245°E)
Time: 03:29:54
(UTC+00:00)

Cosmos 1328 Rocket - Pass Details

Date: 19 May 2025
Orbit: 596 x 618 km, 82.5° (Epoch: 14 June)

Event Time Altitude Azimuth Distance (km) Brightness Sun altitude
Exits shadow 21:46:17 27° 175° (S) 1,180 4.4 -15.2°
Maximum altitude 21:48:35 70° 98° (E) 647 3.6 -15.1°
Drops below altitude 10° 21:52:54 10° 15° (NNE) 1,966 7.5 -15.0°
Sets 21:55:09 0° 14° (NNE) 2,878 8.9 -15.0°
